• In Kazakhstan
  • List of Countries
  • For 7 days
  • Water Temperature
  • Weather Map
  • News
  • Weather Widgets
  • user-avatar
    Login

    Hourly Weather Pleven

    Today, 27 January, Monday

    Time Temperature Precipitation Wind Pressure Humidity
    00:00 +8°C° 0 mm 1 mps 749 mmHg 78%
    01:00 +8°C° 0 mm 1 mps 748 mmHg 78%
    02:00 +8°C° 0 mm 1 mps 748 mmHg 80%
    03:00 +7°C° 0 mm 1 mps 748 mmHg 81%
    04:00 +7°C° 0 mm 1 mps 747 mmHg 81%
    05:00 +7°C° 0 mm 1 mps 747 mmHg 81%
    06:00 +6°C° 0 mm 1 mps 746 mmHg 82%
    07:00 +6°C° 0 mm 1 mps 746 mmHg 83%
    08:00 +6°C° 0 mm 1 mps 746 mmHg 84%
    09:00 +6°C° 0 mm 0 mps 746 mmHg 80%
    10:00 +7°C° 0 mm 0 mps 746 mmHg 77%
    11:00 +8°C° 0 mm 0 mps 746 mmHg 73%
    12:00 +9°C° 0.4 mm 1 mps 745 mmHg 76%
    13:00 +9°C° 0.4 mm 1 mps 745 mmHg 78%
    14:00 +8°C° 0.4 mm 2 mps 744 mmHg 80%
    15:00 +7°C° 0.4 mm 2 mps 744 mmHg 84%
    16:00 +6°C° 0.4 mm 2 mps 744 mmHg 87%
    17:00 +6°C° 0.4 mm 2 mps 744 mmHg 91%
    18:00 +6°C° 0.1 mm 2 mps 744 mmHg 91%
    19:00 +5°C° 0.1 mm 2 mps 744 mmHg 90%
    20:00 +5°C° 0.1 mm 2 mps 744 mmHg 89%
    21:00 +5°C° 0 mm 2 mps 744 mmHg 89%
    22:00 +5°C° 0 mm 2 mps 744 mmHg 88%
    23:00 +5°C° 0 mm 2 mps 744 mmHg 88%

    Tomorrow, 28 January, Tuesday

    Time Temperature Precipitation Wind Pressure Humidity
    00:00 +6°C° 0 mm 2 mps 744 mmHg 88%
    01:00 +6°C° 0 mm 2 mps 744 mmHg 87%
    02:00 +6°C° 0 mm 2 mps 744 mmHg 87%
    03:00 +6°C° 0 mm 2 mps 744 mmHg 87%
    04:00 +6°C° 0 mm 2 mps 743 mmHg 87%
    05:00 +5°C° 0 mm 2 mps 743 mmHg 86%
    06:00 +5°C° 0 mm 2 mps 743 mmHg 86%
    07:00 +5°C° 0 mm 2 mps 743 mmHg 86%
    08:00 +6°C° 0 mm 1 mps 743 mmHg 86%
    09:00 +6°C° 0 mm 2 mps 743 mmHg 77%
    10:00 +8°C° 0 mm 2 mps 743 mmHg 68%
    11:00 +10°C° 0 mm 2 mps 743 mmHg 60%
    12:00 +10°C° 0 mm 2 mps 742 mmHg 56%
    13:00 +12°C° 0 mm 2 mps 742 mmHg 51%
    14:00 +13°C° 0 mm 2 mps 741 mmHg 47%
    15:00 +13°C° 0 mm 2 mps 741 mmHg 51%
    16:00 +12°C° 0 mm 2 mps 741 mmHg 54%
    17:00 +11°C° 0 mm 1 mps 741 mmHg 58%
    18:00 +9°C° 0 mm 2 mps 741 mmHg 61%
    19:00 +9°C° 0 mm 2 mps 741 mmHg 64%
    20:00 +8°C° 0 mm 2 mps 741 mmHg 67%
    21:00 +8°C° 0 mm 2 mps 741 mmHg 65%
    22:00 +8°C° 0 mm 3 mps 741 mmHg 64%
    23:00 +8°C° 0 mm 3 mps 741 mmHg 62%

    Day after tomorrow, 29 January, Wednesday

    Time Temperature Precipitation Wind Pressure Humidity
    00:00 +8°C° 0 mm 3 mps 740 mmHg 62%
    01:00 +8°C° 0 mm 3 mps 740 mmHg 62%
    02:00 +8°C° 0 mm 3 mps 739 mmHg 61%
    03:00 +8°C° 0 mm 3 mps 739 mmHg 61%
    04:00 +8°C° 0 mm 3 mps 738 mmHg 61%
    05:00 +8°C° 0 mm 3 mps 738 mmHg 61%
    06:00 +8°C° 0.4 mm 3 mps 738 mmHg 69%
    07:00 +7°C° 0.4 mm 3 mps 739 mmHg 77%
    08:00 +6°C° 0.4 mm 4 mps 739 mmHg 84%
    09:00 +6°C° 0.2 mm 4 mps 740 mmHg 77%
    10:00 +6°C° 0.2 mm 4 mps 740 mmHg 70%
    11:00 +7°C° 0.2 mm 4 mps 741 mmHg 63%
    12:00 +8°C° 0 mm 4 mps 741 mmHg 59%
    13:00 +9°C° 0 mm 3 mps 740 mmHg 55%
    14:00 +10°C° 0 mm 2 mps 740 mmHg 52%
    15:00 +10°C° 0 mm 2 mps 740 mmHg 54%
    16:00 +10°C° 0 mm 1 mps 740 mmHg 56%
    17:00 +10°C° 0 mm 1 mps 740 mmHg 58%
    18:00 +9°C° 0.1 mm 1 mps 740 mmHg 62%
    19:00 +9°C° 0.1 mm 1 mps 740 mmHg 66%
    20:00 +8°C° 0.1 mm 2 mps 740 mmHg 70%
    21:00 +8°C° 0 mm 2 mps 741 mmHg 71%
    22:00 +7°C° 0 mm 2 mps 741 mmHg 71%
    23:00 +7°C° 0 mm 2 mps 741 mmHg 72%

    30 January, Thursday

    Time Temperature Precipitation Wind Pressure Humidity
    00:00 +7°C° 0.1 mm 3 mps 741 mmHg 72%
    01:00 +7°C° 0.1 mm 3 mps 741 mmHg 72%
    02:00 +5°C° 0.1 mm 3 mps 741 mmHg 72%
    03:00 +5°C° 0 mm 4 mps 742 mmHg 72%
    04:00 +4°C° 0 mm 4 mps 742 mmHg 72%
    05:00 +4°C° 0 mm 4 mps 742 mmHg 72%
    06:00 +4°C° 0 mm 4 mps 743 mmHg 69%
    07:00 +2°C° 0 mm 5 mps 743 mmHg 67%
    08:00 +2°C° 0 mm 5 mps 743 mmHg 65%
    09:00 +2°C° 0 mm 6 mps 744 mmHg 60%
    10:00 +3°C° 0 mm 7 mps 744 mmHg 56%
    11:00 +2°C° 0 mm 8 mps 744 mmHg 52%
    12:00 +4°C° 0 mm 8 mps 744 mmHg 51%
    13:00 +3°C° 0 mm 9 mps 744 mmHg 50%
    14:00 +5°C° 0 mm 9 mps 744 mmHg 48%
    15:00 +3°C° 0 mm 9 mps 744 mmHg 50%
    16:00 +4°C° 0 mm 8 mps 744 mmHg 52%
    17:00 +2°C° 0 mm 8 mps 744 mmHg 53%
    18:00 +2°C° 0 mm 8 mps 745 mmHg 57%
    19:00 +2°C° 0 mm 7 mps 746 mmHg 60%
    20:00 0°C° 0 mm 7 mps 746 mmHg 63%
    21:00 +1°C° 0 mm 6 mps 747 mmHg 64%
    22:00 +1°C° 0 mm 6 mps 747 mmHg 65%
    23:00 0°C° 0 mm 5 mps 748 mmHg 66%

    31 January, Friday

    Time Temperature Precipitation Wind Pressure Humidity
    00:00 0°C° 0 mm 4 mps 748 mmHg 65%
    01:00 0°C° 0 mm 4 mps 748 mmHg 65%
    02:00 0°C° 0 mm 3 mps 748 mmHg 64%
    03:00 0°C° 0 mm 3 mps 748 mmHg 64%
    04:00 0°C° 0 mm 3 mps 748 mmHg 63%
    05:00 0°C° 0 mm 3 mps 747 mmHg 63%
    06:00 +1°C° 0 mm 2 mps 747 mmHg 61%
    07:00 +1°C° 0 mm 2 mps 747 mmHg 60%
    08:00 +1°C° 0 mm 2 mps 747 mmHg 58%
    09:00 +3°C° 0 mm 2 mps 747 mmHg 51%
    10:00 +5°C° 0 mm 2 mps 747 mmHg 44%
    11:00 +7°C° 0 mm 2 mps 746 mmHg 37%
    12:00 +8°C° 0 mm 2 mps 746 mmHg 33%
    13:00 +9°C° 0 mm 3 mps 745 mmHg 30%
    14:00 +10°C° 0 mm 3 mps 744 mmHg 27%
    15:00 +10°C° 0 mm 3 mps 744 mmHg 30%
    16:00 +9°C° 0 mm 3 mps 744 mmHg 33%
    17:00 +8°C° 0 mm 3 mps 744 mmHg 36%
    18:00 +8°C° 0 mm 3 mps 743 mmHg 37%
    19:00 +7°C° 0 mm 3 mps 743 mmHg 39%
    20:00 +7°C° 0 mm 3 mps 743 mmHg 40%
    21:00 +6°C° 0 mm 4 mps 743 mmHg 41%
    22:00 +6°C° 0 mm 4 mps 743 mmHg 43%
    23:00 +6°C° 0 mm 4 mps 743 mmHg 44%

    1 February, Saturday

    Time Temperature Precipitation Wind Pressure Humidity
    00:00 +6°C° 0 mm 5 mps 743 mmHg 52%
    01:00 +6°C° 0 mm 5 mps 743 mmHg 60%
    02:00 +5°C° 0 mm 6 mps 743 mmHg 69%
    03:00 +5°C° 0 mm 6 mps 743 mmHg 72%
    04:00 +5°C° 0 mm 5 mps 744 mmHg 76%
    05:00 +5°C° 0 mm 5 mps 744 mmHg 79%
    06:00 +5°C° 0 mm 4 mps 744 mmHg 79%
    07:00 +5°C° 0 mm 4 mps 745 mmHg 79%
    08:00 +5°C° 0 mm 4 mps 745 mmHg 79%
    09:00 +6°C° 0 mm 4 mps 746 mmHg 73%
    10:00 +8°C° 0 mm 5 mps 746 mmHg 67%
    11:00 +9°C° 0 mm 5 mps 747 mmHg 61%
    12:00 +9°C° 0 mm 5 mps 747 mmHg 60%
    13:00 +10°C° 0 mm 5 mps 747 mmHg 59%
    14:00 +11°C° 0 mm 4 mps 746 mmHg 58%
    15:00 +11°C° 0 mm 4 mps 747 mmHg 59%
    16:00 +11°C° 0 mm 3 mps 747 mmHg 61%
    17:00 +10°C° 0 mm 2 mps 747 mmHg 63%
    18:00 +10°C° 0 mm 2 mps 747 mmHg 65%
    19:00 +9°C° 0 mm 2 mps 747 mmHg 68%
    20:00 +9°C° 0 mm 1 mps 748 mmHg 71%
    21:00 +9°C° 0 mm 1 mps 748 mmHg 72%
    22:00 +9°C° 0 mm 1 mps 748 mmHg 73%
    23:00 +8°C° 0 mm 1 mps 748 mmHg 74%
    Show more